Parshall, CO (80468)

9:49 PM MST on November 22, 2014 (GMT -0700)
Green Mountain Reservoir | Change Station
CLOSE
Current Station
Personal Weather Station
Location: Heeney, CO
Elevation: 7979 ft
Nearby Weather Stations
Active Advisory: Winter Weather Advisory Active Notice: Public Information Statement

Elev 7979 ft 39.87 °N, 106.31 °W | Updated 53 seconds ago

Overcast
Overcast
32.7 °F
Feels Like 25 °F
N
9.2
Wind Variable Wind from NE
Gusts 10.7 mph

Today
High -- | Low -- °F
--% Chance of Precip.
Yesterday
High -- | Low -- °F
Precip. -- in
6:57 AM 4:43 PM
New Moon, 1% visible
Pressure 29.73 in
Visibility 2.0 miles
Clouds Mostly Cloudy 800 ft
Overcast 1300 ft
Windchill 25 °F
Dew Point 28 °F
Humidity 81%
Rainfall 0.00 in
Snow Depth Not available.
UV 0 out of 12
Pollen .10 out of 12
Air Quality Not available.
Flu Activity Not available.
METAR K20V 230435Z AUTO 00000KT 2SM -SN BKN008 OVC013 01/00 A2973 RMK AO2

More Conditions Fewer Conditions

Pressure 29.73 in
Visibility 2.0 miles
Clouds Mostly Cloudy 800 ft
Overcast 1300 ft
Windchill 25 °F
Dew Point 28 °F
Humidity 81%
Rainfall 0.00 in
Snow Depth Not available.
UV 0 out of 12
Pollen .10 out of 12
Air Quality Not available.
Flu Activity Not available.
METAR K20V 230435Z AUTO 00000KT 2SM -SN BKN008 OVC013 01/00 A2973 RMK AO2

More Conditions Fewer Conditions

Nowcast | as of 9:41 PM MST on November 22, 2014

Scattered to numerous snow showers will continue over the north central mountains through midnight. The activity will be most numerous along and near the Continental Divide and along and south of the Interstate 70 corridor. Snowfall rates will generally be less than one quarter inch per hour...with rates up to one half inch per hour with the heavier showers. West winds at 15 to 25 mph with gusts up to 45 mph will continue over the High Mountain passes. The winds will producing areas of blowing snow in windy areas.

×

10-Day Weather Forecast

Almanac

Astronomy

Nov. 22, 2014 Rise Set
Actual Time
Civil Twilight
Nautical Twilight
Astronomical Twilight
Moon
Length of Visible Light
Length of Day
Tomorrow will be .
, % of the Moon is Illuminated

Today's Extremes

State Highs State Lows

Community

WunderPhotos

Upload Photos

1,773,003 photos uploaded!

WunderBlogs® & News

Nearby

Air Quality

  Air Quality AQ Index Pollutant
Not available.

Snow Depth

Station Depth Elevation

Earthquake Activity

City Distance Mag. Time & Date
Minimum magnitude displayed is 2.5.

Coastal Water Temperatures

Place Temperature

Nearby Weather Stations